Juan de Fuca Strait - east entrance: Past 24 Hour Conditions

 

Victoria Int'l Airport

06:00 AM PDT 18 September 2014
This table is a summary of hourly weather conditions for the past 24 hours.
Date / Time
(PDT)
Wind(knots) Conditions Visibility(km) Pressure(kPa) Air tempC) Relative humidity(%) Dew pointC)
18 September 2014
6:00 calm Mostly Cloudy 16 100.6 13 97 13
5:00 S 3 Mostly Cloudy 16 100.6 13 97 13
4:00 ESE 5 Mostly Cloudy 11 100.6 13 97 12
3:00 SE 6 Light Rain 10 100.7 13 97 12
2:00 ESE 4 Light Rain 19 100.7 13 95 12
1:00 ESE 5 Light Rain 24 100.7 13 96 12
0:00 SE 6 Light Rain 24 100.7 13 95 12
17 September 2014
23:00 ESE 3 Light Rain 19 100.7 15 93 14
22:00 ESE 6 Light Rain 24 100.7 15 93 14
21:00 calm Light Rain 24 100.7 16 90 14
20:00 calm Light Rain 32 100.7 16 89 14
19:00 S 3 Light Rain 32 100.7 17 83 14
18:00 ESE 2 Light Rain 32 100.7 18 75 14
17:00 N 1 Mostly Cloudy 32 100.7 18 74 14
16:00 calm Light Rain 24 100.7 19 70 13
15:00 ESE 4 Mostly Cloudy 48 100.8 17 77 13
14:00 E 5 Mostly Cloudy 48 100.8 18 75 13
13:00 ENE 4 Mostly Cloudy 32 100.8 17 78 13
12:00 E 5 Light Rain 48 100.9 16 81 13
11:00 ESE 2 Mostly Cloudy 48 100.9 18 74 13
10:00 SE 4 Mostly Cloudy 48 100.9 16 81 13
9:00 calm Mostly Cloudy 48 100.9 15 87 13
8:00 ESE 2 Mostly Cloudy 32 100.9 14 92 12
7:00 E 2 Mostly Cloudy 32 100.9 13 94 12
6:00 E 3 Light Rain 32 100.9 13 93 12
 
Map of Pacific - Georgia Basin marine weather areas Tsawwassen Ferry Terminal Sentry Shoal - 46131 Halibut Bank - 46146 La Perouse Bank - 46206 Discovery Island Esquimalt Harbour Kelp Reefs Malahat Race Rocks Lightstation Saturna Island Sheringham Point University of Victoria Victoria Gonzales Victoria Int'l Airport Ballenas Islands Campbell River Airport Comox Airport Entrance Island Fanny Island Nanaimo Airport Sisters Islets Estevan Point Tofino Airport Grief Point Powell River Airport Sechelt Point Atkinson Sand Heads Lightstation Vancouver Harbour Vancouver Int'l Airport West Vancouver Port Alberni Howe Sound - Pam Rocks Squamish Airport